Regional Weather Roundup
Issued by NWS Wakefield, VA

Home | Current Version | Previous Version | Text Only | Print | Product List | Glossary On
Versions: 1 2 3 4 5 6 7 8 9 10 11 12 13 14 15 16 17 18 19 20 21 22 23 24 25 26 27 28 29 30 31 32 33 34 35 36 37 38 39 40 41 42 43 44 45 46 47 48 49 50
000
ASUS41 KAKQ 070010
RWRAKQ

REGIONAL WEATHER ROUNDUP
NATIONAL WEATHER SERVICE WAKEFIELD VA
700 PM EST FRI MAR 06 2015

Note: "fair" indicates few or no clouds below 12,000 feet with no
significant weather and/or obstructions to visibility. * = Denotes
station may not report precipitation (e.g., rain,snow,etc.),
thunder or fog.

VAZ042-051-052>054-056-070100-
NORTHERN VIRGINIA

CITY           SKY/WX    TMP DP  RH WIND       PRES   REMARKS
WASH NATIONAL  MOCLDY    27   9  46 S5        30.46F
DULLES         PTCLDY    19   8  62 CALM      30.43F
FORT BELVOIR   CLEAR     22  13  68 SE2       30.45F
QUANTICO       CLEAR     26   8  46 S3        30.47F
FREDERICKSBRG* CLEAR     24  13  62 SE5       30.46S
STAFFORD*      CLEAR     21  12  68 E5        30.49F
WARRENTON      CLEAR     19  18  93 CALM      30.43F
CULPEPER*      CLEAR     18  10  73 CALM      30.43F
MANASSAS*      CLEAR     18  14  86 CALM      30.45F
LEESBURG*      PTCLDY    25  10  54 CALM      30.43F
WINCHESTER     PTCLDY    19   3  49 SE3       30.38F
FRONT ROYAL*   FAIR      23   9  54 CALM      30.37F
LURAY*         FAIR      25  14  63 CALM      30.37S
$$

VAZ048-049-060>072-079>083-070100-
CENTRAL AND SOUTH CENTRAL VIRGINIA

CITY           SKY/WX    TMP DP  RH WIND       PRES   REMARKS
RICHMOND       PTCLDY    27  10  49 E3        30.45F
CHESTERFIELD*  FAIR      28   5  37 CALM      30.46S
PETERSBURG*    CLEAR     28  17  65 CALM      30.46F
HANOVER        CLEAR     24  11  57 CALM      30.47S
TAPPAHANNOCK*  CLEAR     22  11  62 CALM      30.47F
QUINTON*       FAIR      25  13  59 CALM      30.46F
CHARLOTTSVILLE PTCLDY    24   9  52 S5        30.40F
GORDONSVILLE*  FAIR      20  12  70 CALM      30.41F
ORANGE*        CLEAR     19  14  79 CALM      30.44F
LOUISA*        CLEAR     18  16  93 CALM      30.41F
BUMPASS*       FAIR      21  14  73 CALM      30.44S
FARMVILLE*     CLEAR     27   9  46 CALM      30.13F
CREWE*         FAIR      27  13  54 CALM      30.44S
FORT PICKETT*  FAIR      28  12  51 N3        30.44R
CHASE CITY*    FAIR      30  18  61 CALM      30.43S
CLARKSVILLE*   FAIR      30  18  59 CALM      30.43S
SOUTH HILL*    CLEAR     28  14  55 CALM      30.49S
LAWRENCEVILLE* FAIR      28  12  50 CALM      30.44S
EMPORIA*       CLEAR     28  18  64 CALM      30.47S
$$

VAZ088>098-070100-
SOUTHEAST VIRGINIA

CITY           SKY/WX    TMP DP  RH WIND       PRES   REMARKS
NORFOLK        PTCLDY    25  14  63 N7        30.46S
VIRGINIA BEACH PTCLDY    26  16  65 N7        30.45S
NORFOLK NAVAL  PTCLDY    28  13  53 NE10      30.47S WCI  19
WEST POINT*    CLEAR     28  13  52 CALM      30.49S
SALUDA*        FAIR      24  10  54 N5        30.47S
NEWPORT NEWS   CLEAR     26  15  63 NE3       30.47R
LANGLEY AFB    PTCLDY    23  15  71 NE5       30.46S
FORT EUSTIS    CLEAR     26  16  64 E3        30.45R
WILLIAMSBURG*    N/A    N/A N/A N/A MISG      30.46R
HR EXEC AP*      N/A    N/A N/A N/A MISG        N/A
FRANKLIN*      CLEAR     27  18  67 NE3       30.46S
WAKEFIELD      CLEAR     28  14  55 CALM      30.47R
$$

VAZ020-022-025-037-045-070100-
WEST CENTRAL AND SOUTHWEST VIRGINIA

CITY           SKY/WX    TMP DP  RH WIND       PRES   REMARKS
STAUNTON*      PTCLDY    19  11  70 CALM      30.37S
WAYNESBORO*    FAIR      21  15  79 CALM      30.34R
HOT SPRINGS VA CLEAR     18  14  82 W8        30.18R
LYNCHBURG      CLEAR     25  15  66 CALM      30.40F
DANVILLE       CLEAR     31  13  47 CALM      30.42S
SOUTH BOSTON*  FAIR      29  13  50 CALM      30.43S
MARTINSVILLE   CLEAR     29  17  63 CALM      30.41R
ROANOKE        CLEAR     30  14  51 CALM      30.39R
BLACKSBURG     CLEAR     26  17  68 CALM      30.34S
DUBLIN*        CLEAR     29  21  70 CALM      30.33S
MARION*        CLEAR     30  16  56 W13       30.33R WCI  20
HILLSVILLE*    CLEAR     30  16  56 CALM      30.29R
RICHLANDS*     FAIR      27  16  63 SW6       30.31S
WISE*          CLEAR     28  14  54 SW6       30.32S
ABINGDON*      CLEAR     31  14  48 NW5       30.35S
$$

MDZ021>025-VAZ099-100-070100-
SOUTHERN MARYLAND AND THE DELMARVA PENINSULA

CITY           SKY/WX    TMP DP  RH WIND       PRES   REMARKS
PATUXENT RIVER PTCLDY    17  10  74 CALM      30.47S
BAY BRIDGE APT   N/A     21  12  68 CALM      30.47F
LEONARDTOWN      N/A     21  14  73 CALM      30.48S
DOVER          CLEAR     18   7  63 W2        30.46F
GEORGETOWN     CLEAR     19  10  68 CALM      30.47S
EASTON         CLEAR     21  10  63 CALM      30.51S
CAMBRIDGE      CLEAR     21  12  68 CALM      30.47S
SALISBURY      CLEAR     24  12  60 NW7       30.46S
OCEAN CITY     CLEAR     20  13  74 NE5       30.47R
WALLOPS ISLAND CLEAR     23  16  74 NE5       30.47S
ACCOMACK*      PTCLDY    25  18  74 NW3       30.46S
$$

NCZ012>017-030>032-070100-
NORTH CENTRAL AND EASTERN NORTH CAROLINA

CITY           SKY/WX    TMP DP  RH WIND       PRES   REMARKS
ROANOKE RAPIDS FAIR      30  18  59 N3        30.45S
RALEIGH        PTCLDY    32  10  40 CALM      30.43R
ELIZABETH CITY PTCLDY    27  18  69 N10       30.45S WCI  17
AHOSKIE*       CLEAR     28  17  61 CALM      30.45S
EDENTON*       PTCLDY    30  14  51 NE5       30.45R
CURRITUCK*     MOCLDY    28  19  69 N7        30.46R
KILL DEVIL HLS CLOUDY    29  24  83 N10G20    30.41S WCI  19
MANTEO         CLOUDY    29  24  82 N14G21    30.43S WCI  18
CAPE HATTERAS  CLOUDY    30  28  92 N12G24    30.40R WCI  20
TARBORO*       FAIR      32  19  58 CALM      30.45S
GOLDSBORO      CLEAR     33  19  54 N5        30.42R
WASHINGTON     CLEAR     32  19  58 NE3       30.44R
GREENVILLE     CLEAR     32  19  59 N5        30.44R
NEW BERN       CLEAR     35  19  52 NE8       30.43R
WILMINGTON     PTCLDY    38  22  52 N9        30.42R
$$

VAZ048-070100-
ELSEWHERE

CITY           SKY/WX    TMP DP  RH WIND       PRES   REMARKS
HARRISBURG PA  MOCLDY    19   6  57 CALM      30.41F
BALTIMORE      PTCLDY    19  11  70 CALM      30.45S
ANNAPOLIS      CLEAR     21  10  62 S3        30.47S
ANDREWS AFB    CLEAR     17   8  67 SE2       30.43F
PHILADELPHIA   MOCLDY    23  10  57 S8        30.46R
HENDERSON NC   CLEAR     29  13  50 CALM      30.43R
GREENSBORO     PTCLDY    34  14  43 CALM      30.38F
ROCKY MOUNT    CLEAR     30  16  56 CALM      30.44R
$$

VAZ100-070100-
MARINE

STATION/POSITION TIME  TEMP    WIND        PRES    WAVE   SWELL
                       AIR SEA DIR/SP/G            HT/PER HT/PER
                 (UTC) (F)     (DEG/KT/KT) (MB)    (FT/S) (FT/S)
BRANDYWINE LGT   2300   23 31  310/  7/  8 1031.8S
CAPE MAY NJ      0000   22 34  290/  6/  7 1031.3F
LEWES DE         0000   22 31  260/  2/  3 1031.6F
15NM E FENWICK I 0000   24 36              1031.2R   4/ 7
OCEAN-CITY-INLET 2300   22 32   70/  2/  4 1031.3R
WACHAPREAGUE VA  0000   24 37  320/  1/  4 1031.5S
THOMAS POINT MD  0000           70/  3/  4   N/A
COVE POINT MD    0000   21        CALM     1031.8S
SOLOMONS ISLAND  0000      34                N/A
BISHOPS HEAD MD  0000   22 32  350/  4/  6 1031.4F
CAMBRIDGE MD     0000   22 32   CALM  /  2 1031.7F
LEWISETTA VA     0000                      1031.8S
RAPPAHANNOCK LGT 0000          350/ 10/ 11 1032.1S
STINGRAY PT      0000   25      10/ 10/ 12   N/A
YORK RVR RNG VA  0000   25      50/ 11/ 12 1029.1F
YORKTOWN VA      0000   26 36   40/  7/  8 1031.3S
DOMINION TERM VA 0000   26      40/  4/  8 1031.5F
KIPTOPEKE VA     0000           10/  5/  8   N/A
CHES BAY BRIDGE  2300   25 34  360/ 10/ 12 1031.0S
CAPE HENRY VA    0000   25     350/ 12/ 14 1029.9R
CHESAPEAKE LGHT  2300   26      10/ 14/ 15 1031.5R
WILLOUBY STN VA  0000           20/  9/ 10 1031.8F
S CRANEY ISL VA  0000           30/  9/ 12 1031.5S
CAPE HENRY BUOY  0000      35                N/A     5/ 7
1ST LANDING BUOY 0000   25     350/ 12/ 16 1031.0R
OFFSHORE WE BUOY 0000      36                N/A     6/ 6   3/ 6
64NM E OF VA BCH 0000   35 51  360/ 19/ 25 1028.5R   7/ 9   5/ 9
DUCK PIER NC     0000   28 35  360/ 18/ 21 1029.2F
44056 DUCK FRF   0000      35                N/A     6/ 7   2/11
OREGON INLET NC  0000   29 38  350/ 16/ 21 1029.7R
HATTERAS NC      2300   32 42  360/ 24/ 28 1029.4R
CAPE LOOKOUT NC  0000          360/ 16/ 19 1029.4R
$$



USA.gov is the U.S. government's official web portal to all federal, state and local government web resources and services.